Location: Gloden
(48.4833°N, 15.3167°E)
Time: 05:41:22
(UTC+00:00)

BREEZE-M DEB (TANK) - Pass Details

Date: 15 December 2019
Orbit: 284 x 20933 km, 49.4° (Epoch: 21 January)

Event Time Altitude Azimuth Distance (km) Brightness Sun altitude
Exits shadow 05:17:13 12° 227° (SW) 1,081 3.6 -13.5°
Maximum altitude 05:17:54 14° 206° (SSW) 1,093 3.8 -13.4°
Drops below altitude 10° 05:19:25 10° 172° (S) 1,511 4.9 -13.1°
Sets 05:23:21 0° 145° (SE) 3,381 7.3 -12.5°
